Back to catalog

STARLINK-31357

AliveCommunicationsVLEO
NORAD 59502·PAYLOAD·🇺🇸 United States

Launched Apr 13, 2024 from Cape Canaveral Space Force Station

Loading…

Next Passes (next 24 hours)

TLE

FreshSource: CelesTrak SupGP

Epoch: Sep 14, 2026, 22:42 UTC

1 59502C 24071U   26257.94631944 -.00014981  00000+0 -54256-3 0  2573
2 59502  43.0043 351.2681 0001622 266.5220 174.8878 15.27587597    17

Track STARLINK-31357 in real time with AllMySat

Download on the App Store